Location: Driftpile
(55.3500°N, 115.7667°W)
Time: 11:34:22
(UTC+00:00)

N. Korean satellite - Pass Details

Date: 28 November 2021
Orbit: 447 x 491 km, 97.3° (Epoch: 23 January)

Event Time Altitude Azimuth Distance (km) Brightness Sun altitude
Rises 01:05:49 0° 207° (SSW) 2,551 10.9 -13.9°
Reaches altitude 10° 01:08:29 10° 229° (SW) 1,667 10.4 -14.3°
Maximum altitude 01:10:51 17° 270° (W) 1,305 9.8 -14.6°
Drops below altitude 10° 01:13:12 10° 312° (NW) 1,659 9.7 -15.0°
Sets 01:15:51 0° 334° (NNW) 2,532 10.4 -15.3°
